Netzbetreibername:;SW D�beln GmbH;;
Netz- oder Umspannebene:;Umspannung MS/NS;;
Lastgangtyp:;Summe aller Einspeisungen;;
gesetzliche Grundlage:;� 17 Abs. 2 Nr. 6 StromNZV;;
Einheit:;kW;;
Betrachtungszeitraum:;01.01.2019;31.12.2019;
;;;
Datum;von;bis;Wert
01.01.2019;00:00;00:15;138
01.01.2019;00:15;00:30;138
01.01.2019;00:30;00:45;138
01.01.2019;00:45;01:00;138
01.01.2019;01:00;01:15;138
01.01.2019;01:15;01:30;138
01.01.2019;01:30;01:45;138
01.01.2019;01:45;02:00;138
01.01.2019;02:00;02:15;138
01.01.2019;02:15;02:30;138
01.01.2019;02:30;02:45;138
01.01.2019;02:45;03:00;138
01.01.2019;03:00;03:15;139
01.01.2019;03:15;03:30;139
01.01.2019;03:30;03:45;139
01.01.2019;03:45;04:00;139
01.01.2019;04:00;04:15;139
01.01.2019;04:15;04:30;139
01.01.2019;04:30;04:45;139
01.01.2019;04:45;05:00;139
01.01.2019;05:00;05:15;139
01.01.2019;05:15;05:30;139
01.01.2019;05:30;05:45;139
01.01.2019;05:45;06:00;139
01.01.2019;06:00;06:15;139
01.01.2019;06:15;06:30;139
01.01.2019;06:30;06:45;139
01.01.2019;06:45;07:00;139
01.01.2019;07:00;07:15;139
01.01.2019;07:15;07:30;139
01.01.2019;07:30;07:45;138
01.01.2019;07:45;08:00;139
01.01.2019;08:00;08:15;138
01.01.2019;08:15;08:30;139
01.01.2019;08:30;08:45;139
01.01.2019;08:45;09:00;139
01.01.2019;09:00;09:15;140
01.01.2019;09:15;09:30;146
01.01.2019;09:30;09:45;157
01.01.2019;09:45;10:00;172
01.01.2019;10:00;10:15;161
01.01.2019;10:15;10:30;171
01.01.2019;10:30;10:45;191
01.01.2019;10:45;11:00;181
01.01.2019;11:00;11:15;184
01.01.2019;11:15;11:30;229
01.01.2019;11:30;11:45;253
01.01.2019;11:45;12:00;229
01.01.2019;12:00;12:15;232
01.01.2019;12:15;12:30;240
01.01.2019;12:30;12:45;226
01.01.2019;12:45;13:00;230
01.01.2019;13:00;13:15;249
01.01.2019;13:15;13:30;216
01.01.2019;13:30;13:45;185
01.01.2019;13:45;14:00;164
01.01.2019;14:00;14:15;162
01.01.2019;14:15;14:30;159
01.01.2019;14:30;14:45;158
01.01.2019;14:45;15:00;153
01.01.2019;15:00;15:15;146
01.01.2019;15:15;15:30;144
01.01.2019;15:30;15:45;149
01.01.2019;15:45;16:00;145
01.01.2019;16:00;16:15;140
01.01.2019;16:15;16:30;139
01.01.2019;16:30;16:45;139
01.01.2019;16:45;17:00;139
01.01.2019;17:00;17:15;139
01.01.2019;17:15;17:30;140
01.01.2019;17:30;17:45;140
01.01.2019;17:45;18:00;140
01.01.2019;18:00;18:15;140
01.01.2019;18:15;18:30;140
01.01.2019;18:30;18:45;140
01.01.2019;18:45;19:00;140
01.01.2019;19:00;19:15;140
01.01.2019;19:15;19:30;139
01.01.2019;19:30;19:45;139
01.01.2019;19:45;20:00;139
01.01.2019;20:00;20:15;139
01.01.2019;20:15;20:30;139
01.01.2019;20:30;20:45;139
01.01.2019;20:45;21:00;139
01.01.2019;21:00;21:15;139
01.01.2019;21:15;21:30;139
01.01.2019;21:30;21:45;139
01.01.2019;21:45;22:00;139
01.01.2019;22:00;22:15;139
01.01.2019;22:15;22:30;139
01.01.2019;22:30;22:45;139
01.01.2019;22:45;23:00;139
01.01.2019;23:00;23:15;139
01.01.2019;23:15;23:30;139
01.01.2019;23:30;23:45;140
02.01.2019;23:45;00:00;138
02.01.2019;00:00;00:15;139
02.01.2019;00:15;00:30;139
02.01.2019;00:30;00:45;140
02.01.2019;00:45;01:00;140
02.01.2019;01:00;01:15;139
02.01.2019;01:15;01:30;139,78
02.01.2019;01:30;01:45;139,585
02.01.2019;01:45;02:00;140,875
02.01.2019;02:00;02:15;140,515
02.01.2019;02:15;02:30;139,485
02.01.2019;02:30;02:45;140,13
02.01.2019;02:45;03:00;139,83
02.01.2019;03:00;03:15;140,005
02.01.2019;03:15;03:30;140,16
02.01.2019;03:30;03:45;140,485
02.01.2019;03:45;04:00;140,235
02.01.2019;04:00;04:15;140,34
02.01.2019;04:15;04:30;140,715
02.01.2019;04:30;04:45;140,95
02.01.2019;04:45;05:00;139,91
02.01.2019;05:00;05:15;141
02.01.2019;05:15;05:30;141
02.01.2019;05:30;05:45;141
02.01.2019;05:45;06:00;141
02.01.2019;06:00;06:15;141
02.01.2019;06:15;06:30;141
02.01.2019;06:30;06:45;141
02.01.2019;06:45;07:00;141
02.01.2019;07:00;07:15;140
02.01.2019;07:15;07:30;141
02.01.2019;07:30;07:45;141
02.01.2019;07:45;08:00;141
02.01.2019;08:00;08:15;141
02.01.2019;08:15;08:30;142
02.01.2019;08:30;08:45;145
02.01.2019;08:45;09:00;157
02.01.2019;09:00;09:15;180
02.01.2019;09:15;09:30;191
02.01.2019;09:30;09:45;215
02.01.2019;09:45;10:00;231
02.01.2019;10:00;10:15;251
02.01.2019;10:15;10:30;430
02.01.2019;10:30;10:45;460
02.01.2019;10:45;11:00;472
02.01.2019;11:00;11:15;569
02.01.2019;11:15;11:30;375
02.01.2019;11:30;11:45;316
02.01.2019;11:45;12:00;288
02.01.2019;12:00;12:15;294
02.01.2019;12:15;12:30;275
02.01.2019;12:30;12:45;218
02.01.2019;12:45;13:00;239
02.01.2019;13:00;13:15;276
02.01.2019;13:15;13:30;338
02.01.2019;13:30;13:45;299
02.01.2019;13:45;14:00;286
02.01.2019;14:00;14:15;229
02.01.2019;14:15;14:30;182
02.01.2019;14:30;14:45;186
02.01.2019;14:45;15:00;218
02.01.2019;15:00;15:15;264
02.01.2019;15:15;15:30;218
02.01.2019;15:30;15:45;187
02.01.2019;15:45;16:00;152
02.01.2019;16:00;16:15;144
02.01.2019;16:15;16:30;139
02.01.2019;16:30;16:45;139
02.01.2019;16:45;17:00;140
02.01.2019;17:00;17:15;140
02.01.2019;17:15;17:30;140
02.01.2019;17:30;17:45;139
02.01.2019;17:45;18:00;139
02.01.2019;18:00;18:15;139
02.01.2019;18:15;18:30;138
02.01.2019;18:30;18:45;139
02.01.2019;18:45;19:00;139
02.01.2019;19:00;19:15;139
02.01.2019;19:15;19:30;139
02.01.2019;19:30;19:45;139
02.01.2019;19:45;20:00;139
02.01.2019;20:00;20:15;139
02.01.2019;20:15;20:30;138
02.01.2019;20:30;20:45;138
02.01.2019;20:45;21:00;138
02.01.2019;21:00;21:15;138
02.01.2019;21:15;21:30;137
02.01.2019;21:30;21:45;139
02.01.2019;21:45;22:00;139
02.01.2019;22:00;22:15;139
02.01.2019;22:15;22:30;139
02.01.2019;22:30;22:45;139
02.01.2019;22:45;23:00;139
02.01.2019;23:00;23:15;139
02.01.2019;23:15;23:30;139
02.01.2019;23:30;23:45;139
03.01.2019;23:45;00:00;139
03.01.2019;00:00;00:15;139
03.01.2019;00:15;00:30;138
03.01.2019;00:30;00:45;138
03.01.2019;00:45;01:00;138
03.01.2019;01:00;01:15;138
03.01.2019;01:15;01:30;137
03.01.2019;01:30;01:45;139
03.01.2019;01:45;02:00;139
03.01.2019;02:00;02:15;138
03.01.2019;02:15;02:30;139
03.01.2019;02:30;02:45;138
03.01.2019;02:45;03:00;138
03.01.2019;03:00;03:15;138
03.01.2019;03:15;03:30;138,55
03.01.2019;03:30;03:45;138,62
03.01.2019;03:45;04:00;138,565
03.01.2019;04:00;04:15;138,565
03.01.2019;04:15;04:30;138,575
03.01.2019;04:30;04:45;138
03.01.2019;04:45;05:00;139
03.01.2019;05:00;05:15;139
03.01.2019;05:15;05:30;138
03.01.2019;05:30;05:45;138
03.01.2019;05:45;06:00;138
03.01.2019;06:00;06:15;138
03.01.2019;06:15;06:30;138
03.01.2019;06:30;06:45;138
03.01.2019;06:45;07:00;138
03.01.2019;07:00;07:15;138
03.01.2019;07:15;07:30;138
03.01.2019;07:30;07:45;137
03.01.2019;07:45;08:00;138
03.01.2019;08:00;08:15;140
03.01.2019;08:15;08:30;151
03.01.2019;08:30;08:45;157
03.01.2019;08:45;09:00;170
03.01.2019;09:00;09:15;177
03.01.2019;09:15;09:30;182
03.01.2019;09:30;09:45;189
03.01.2019;09:45;10:00;181
03.01.2019;10:00;10:15;193
03.01.2019;10:15;10:30;180
03.01.2019;10:30;10:45;176
03.01.2019;10:45;11:00;200
03.01.2019;11:00;11:15;208
03.01.2019;11:15;11:30;213
03.01.2019;11:30;11:45;227
03.01.2019;11:45;12:00;254
03.01.2019;12:00;12:15;246
03.01.2019;12:15;12:30;220
03.01.2019;12:30;12:45;213
03.01.2019;12:45;13:00;200
03.01.2019;13:00;13:15;198
03.01.2019;13:15;13:30;191
03.01.2019;13:30;13:45;194
03.01.2019;13:45;14:00;175
03.01.2019;14:00;14:15;164
03.01.2019;14:15;14:30;153
03.01.2019;14:30;14:45;146
03.01.2019;14:45;15:00;149
03.01.2019;15:00;15:15;145
03.01.2019;15:15;15:30;141
03.01.2019;15:30;15:45;139
03.01.2019;15:45;16:00;138
03.01.2019;16:00;16:15;138
03.01.2019;16:15;16:30;138
03.01.2019;16:30;16:45;137
03.01.2019;16:45;17:00;137
03.01.2019;17:00;17:15;138
03.01.2019;17:15;17:30;138
03.01.2019;17:30;17:45;137
03.01.2019;17:45;18:00;137
03.01.2019;18:00;18:15;137
03.01.2019;18:15;18:30;137
03.01.2019;18:30;18:45;137
03.01.2019;18:45;19:00;137
03.01.2019;19:00;19:15;137
03.01.2019;19:15;19:30;137
03.01.2019;19:30;19:45;137
03.01.2019;19:45;20:00;137
03.01.2019;20:00;20:15;137
03.01.2019;20:15;20:30;137
03.01.2019;20:30;20:45;138
03.01.2019;20:45;21:00;138
03.01.2019;21:00;21:15;137
03.01.2019;21:15;21:30;137
03.01.2019;21:30;21:45;137
03.01.2019;21:45;22:00;137
03.01.2019;22:00;22:15;137
03.01.2019;22:15;22:30;137
03.01.2019;22:30;22:45;137
03.01.2019;22:45;23:00;137
03.01.2019;23:00;23:15;137
03.01.2019;23:15;23:30;137
03.01.2019;23:30;23:45;137
04.01.2019;23:45;00:00;137
04.01.2019;00:00;00:15;137
04.01.2019;00:15;00:30;137
04.01.2019;00:30;00:45;138
04.01.2019;00:45;01:00;137
04.01.2019;01:00;01:15;138
04.01.2019;01:15;01:30;138
04.01.2019;01:30;01:45;138
04.01.2019;01:45;02:00;137
04.01.2019;02:00;02:15;138
04.01.2019;02:15;02:30;138
04.01.2019;02:30;02:45;138
04.01.2019;02:45;03:00;137
04.01.2019;03:00;03:15;138
04.01.2019;03:15;03:30;138
04.01.2019;03:30;03:45;138
04.01.2019;03:45;04:00;137
04.01.2019;04:00;04:15;137
04.01.2019;04:15;04:30;137
04.01.2019;04:30;04:45;137
04.01.2019;04:45;05:00;137
04.01.2019;05:00;05:15;138
04.01.2019;05:15;05:30;137
04.01.2019;05:30;05:45;137
04.01.2019;05:45;06:00;137
04.01.2019;06:00;06:15;137
04.01.2019;06:15;06:30;137
04.01.2019;06:30;06:45;138
04.01.2019;06:45;07:00;137
04.01.2019;07:00;07:15;137
04.01.2019;07:15;07:30;137
04.01.2019;07:30;07:45;137
04.01.2019;07:45;08:00;137
04.01.2019;08:00;08:15;137
04.01.2019;08:15;08:30;137
04.01.2019;08:30;08:45;138
04.01.2019;08:45;09:00;139
04.01.2019;09:00;09:15;140
04.01.2019;09:15;09:30;142
04.01.2019;09:30;09:45;150
04.01.2019;09:45;10:00;152
04.01.2019;10:00;10:15;154
04.01.2019;10:15;10:30;164
04.01.2019;10:30;10:45;164
04.01.2019;10:45;11:00;156
04.01.2019;11:00;11:15;163
04.01.2019;11:15;11:30;177
04.01.2019;11:30;11:45;168
04.01.2019;11:45;12:00;166
04.01.2019;12:00;12:15;162
04.01.2019;12:15;12:30;164
04.01.2019;12:30;12:45;166
04.01.2019;12:45;13:00;169
04.01.2019;13:00;13:15;170
04.01.2019;13:15;13:30;166
04.01.2019;13:30;13:45;175
04.01.2019;13:45;14:00;171
04.01.2019;14:00;14:15;160
04.01.2019;14:15;14:30;153
04.01.2019;14:30;14:45;145
04.01.2019;14:45;15:00;141
04.01.2019;15:00;15:15;138
04.01.2019;15:15;15:30;138
04.01.2019;15:30;15:45;138
04.01.2019;15:45;16:00;138
04.01.2019;16:00;16:15;123
04.01.2019;16:15;16:30;137
04.01.2019;16:30;16:45;138
04.01.2019;16:45;17:00;137
04.01.2019;17:00;17:15;137
04.01.2019;17:15;17:30;137
04.01.2019;17:30;17:45;137
04.01.2019;17:45;18:00;137
04.01.2019;18:00;18:15;137
04.01.2019;18:15;18:30;137
04.01.2019;18:30;18:45;137
04.01.2019;18:45;19:00;136
04.01.2019;19:00;19:15;137
04.01.2019;19:15;19:30;137
04.01.2019;19:30;19:45;137
04.01.2019;19:45;20:00;137
04.01.2019;20:00;20:15;137
04.01.2019;20:15;20:30;137
04.01.2019;20:30;20:45;137
04.01.2019;20:45;21:00;137
04.01.2019;21:00;21:15;137
04.01.2019;21:15;21:30;137
04.01.2019;21:30;21:45;137
04.01.2019;21:45;22:00;137
04.01.2019;22:00;22:15;137
04.01.2019;22:15;22:30;137
04.01.2019;22:30;22:45;137
04.01.2019;22:45;23:00;137
04.01.2019;23:00;23:15;137
04.01.2019;23:15;23:30;137
04.01.2019;23:30;23:45;137
05.01.2019;23:45;00:00;137
05.01.2019;00:00;00:15;137
05.01.2019;00:15;00:30;137
05.01.2019;00:30;00:45;137
05.01.2019;00:45;01:00;136
05.01.2019;01:00;01:15;136
05.01.2019;01:15;01:30;136
05.01.2019;01:30;01:45;136
05.01.2019;01:45;02:00;136
05.01.2019;02:00;02:15;136
05.01.2019;02:15;02:30;136
05.01.2019;02:30;02:45;136
05.01.2019;02:45;03:00;136
05.01.2019;03:00;03:15;136
05.01.2019;03:15;03:30;135
05.01.2019;03:30;03:45;136
05.01.2019;03:45;04:00;136
05.01.2019;04:00;04:15;137
05.01.2019;04:15;04:30;137
05.01.2019;04:30;04:45;137
05.01.2019;04:45;05:00;137
05.01.2019;05:00;05:15;137
05.01.2019;05:15;05:30;137
05.01.2019;05:30;05:45;137
05.01.2019;05:45;06:00;137
05.01.2019;06:00;06:15;137
05.01.2019;06:15;06:30;137
05.01.2019;06:30;06:45;137
05.01.2019;06:45;07:00;137
05.01.2019;07:00;07:15;137
05.01.2019;07:15;07:30;137
05.01.2019;07:30;07:45;137
05.01.2019;07:45;08:00;137
05.01.2019;08:00;08:15;137
05.01.2019;08:15;08:30;137
05.01.2019;08:30;08:45;137
05.01.2019;08:45;09:00;138
05.01.2019;09:00;09:15;138
05.01.2019;09:15;09:30;139
05.01.2019;09:30;09:45;141
05.01.2019;09:45;10:00;144
05.01.2019;10:00;10:15;150
05.01.2019;10:15;10:30;156
05.01.2019;10:30;10:45;168
05.01.2019;10:45;11:00;172
05.01.2019;11:00;11:15;183
05.01.2019;11:15;11:30;183
05.01.2019;11:30;11:45;192
05.01.2019;11:45;12:00;205
05.01.2019;12:00;12:15;205
05.01.2019;12:15;12:30;220
05.01.2019;12:30;12:45;225
05.01.2019;12:45;13:00;208
05.01.2019;13:00;13:15;211
05.01.2019;13:15;13:30;238
05.01.2019;13:30;13:45;251
05.01.2019;13:45;14:00;243
05.01.2019;14:00;14:15;236
05.01.2019;14:15;14:30;230
05.01.2019;14:30;14:45;206
05.01.2019;14:45;15:00;164
05.01.2019;15:00;15:15;155
05.01.2019;15:15;15:30;149
05.01.2019;15:30;15:45;141
05.01.2019;15:45;16:00;139
05.01.2019;16:00;16:15;140
05.01.2019;16:15;16:30;139
05.01.2019;16:30;16:45;139
05.01.2019;16:45;17:00;141
05.01.2019;17:00;17:15;140
05.01.2019;17:15;17:30;140
05.01.2019;17:30;17:45;140
05.01.2019;17:45;18:00;140
05.01.2019;18:00;18:15;140
05.01.2019;18:15;18:30;140
05.01.2019;18:30;18:45;140
05.01.2019;18:45;19:00;140
05.01.2019;19:00;19:15;140
05.01.2019;19:15;19:30;139
05.01.2019;19:30;19:45;139
05.01.2019;19:45;20:00;140
05.01.2019;20:00;20:15;138
05.01.2019;20:15;20:30;139
05.01.2019;20:30;20:45;138
05.01.2019;20:45;21:00;138
05.01.2019;21:00;21:15;138
05.01.2019;21:15;21:30;137
05.01.2019;21:30;21:45;137
05.01.2019;21:45;22:00;135
05.01.2019;22:00;22:15;136
05.01.2019;22:15;22:30;135
05.01.2019;22:30;22:45;136
05.01.2019;22:45;23:00;135
05.01.2019;23:00;23:15;136
05.01.2019;23:15;23:30;133
05.01.2019;23:30;23:45;133
06.01.2019;23:45;00:00;132
06.01.2019;00:00;00:15;130
06.01.2019;00:15;00:30;128
06.01.2019;00:30;00:45;128
06.01.2019;00:45;01:00;127
06.01.2019;01:00;01:15;126
06.01.2019;01:15;01:30;121
06.01.2019;01:30;01:45;102
06.01.2019;01:45;02:00;92
06.01.2019;02:00;02:15;92
06.01.2019;02:15;02:30;91
06.01.2019;02:30;02:45;91
06.01.2019;02:45;03:00;91
06.01.2019;03:00;03:15;91
06.01.2019;03:15;03:30;90
06.01.2019;03:30;03:45;90
06.01.2019;03:45;04:00;90
06.01.2019;04:00;04:15;92
06.01.2019;04:15;04:30;92
06.01.2019;04:30;04:45;91
06.01.2019;04:45;05:00;90
06.01.2019;05:00;05:15;90
06.01.2019;05:15;05:30;89
06.01.2019;05:30;05:45;90
06.01.2019;05:45;06:00;89
06.01.2019;06:00;06:15;89
06.01.2019;06:15;06:30;89
06.01.2019;06:30;06:45;89
06.01.2019;06:45;07:00;90
06.01.2019;07:00;07:15;90
06.01.2019;07:15;07:30;90
06.01.2019;07:30;07:45;90
06.01.2019;07:45;08:00;89
06.01.2019;08:00;08:15;91
06.01.2019;08:15;08:30;95
06.01.2019;08:30;08:45;100
06.01.2019;08:45;09:00;111
06.01.2019;09:00;09:15;127
06.01.2019;09:15;09:30;142
06.01.2019;09:30;09:45;148
06.01.2019;09:45;10:00;162
06.01.2019;10:00;10:15;185
06.01.2019;10:15;10:30;210
06.01.2019;10:30;10:45;202
06.01.2019;10:45;11:00;199
06.01.2019;11:00;11:15;215
06.01.2019;11:15;11:30;214
06.01.2019;11:30;11:45;230
06.01.2019;11:45;12:00;254
06.01.2019;12:00;12:15;265
06.01.2019;12:15;12:30;226
06.01.2019;12:30;12:45;221
06.01.2019;12:45;13:00;240
06.01.2019;13:00;13:15;235
06.01.2019;13:15;13:30;224
06.01.2019;13:30;13:45;193
06.01.2019;13:45;14:00;193
06.01.2019;14:00;14:15;185
06.01.2019;14:15;14:30;185
06.01.2019;14:30;14:45;176
06.01.2019;14:45;15:00;166
06.01.2019;15:00;15:15;141
06.01.2019;15:15;15:30;119
06.01.2019;15:30;15:45;108
06.01.2019;15:45;16:00;102
06.01.2019;16:00;16:15;97
06.01.2019;16:15;16:30;95
06.01.2019;16:30;16:45;95
06.01.2019;16:45;17:00;94
06.01.2019;17:00;17:15;94
06.01.2019;17:15;17:30;93
06.01.2019;17:30;17:45;95
06.01.2019;17:45;18:00;95
06.01.2019;18:00;18:15;112
06.01.2019;18:15;18:30;129
06.01.2019;18:30;18:45;130
06.01.2019;18:45;19:00;130
06.01.2019;19:00;19:15;130
06.01.2019;19:15;19:30;131
06.01.2019;19:30;19:45;131
06.01.2019;19:45;20:00;130
06.01.2019;20:00;20:15;129
06.01.2019;20:15;20:30;130
06.01.2019;20:30;20:45;130
06.01.2019;20:45;21:00;130
06.01.2019;21:00;21:15;130
06.01.2019;21:15;21:30;129
06.01.2019;21:30;21:45;129
06.01.2019;21:45;22:00;130
06.01.2019;22:00;22:15;131
06.01.2019;22:15;22:30;131
06.01.2019;22:30;22:45;131
06.01.2019;22:45;23:00;132
06.01.2019;23:00;23:15;131
06.01.2019;23:15;23:30;131
06.01.2019;23:30;23:45;131
07.01.2019;23:45;00:00;73
07.01.2019;00:00;00:15;46
07.01.2019;00:15;00:30;46
07.01.2019;00:30;00:45;46
07.01.2019;00:45;01:00;46
07.01.2019;01:00;01:15;46
07.01.2019;01:15;01:30;46
07.01.2019;01:30;01:45;46
07.01.2019;01:45;02:00;46
07.01.2019;02:00;02:15;46
07.01.2019;02:15;02:30;46
07.01.2019;02:30;02:45;46
07.01.2019;02:45;03:00;46
07.01.2019;03:00;03:15;46
07.01.2019;03:15;03:30;46
07.01.2019;03:30;03:45;46
07.01.2019;03:45;04:00;46
07.01.2019;04:00;04:15;46
07.01.2019;04:15;04:30;46
07.01.2019;04:30;04:45;46
07.01.2019;04:45;05:00;46
07.01.2019;05:00;05:15;46
07.01.2019;05:15;05:30;46
07.01.2019;05:30;05:45;46
07.01.2019;05:45;06:00;46
07.01.2019;06:00;06:15;46
07.01.2019;06:15;06:30;46
07.01.2019;06:30;06:45;46
07.01.2019;06:45;07:00;46
07.01.2019;07:00;07:15;47
07.01.2019;07:15;07:30;120
07.01.2019;07:30;07:45;134
07.01.2019;07:45;08:00;135
07.01.2019;08:00;08:15;136
07.01.2019;08:15;08:30;135
07.01.2019;08:30;08:45;137
07.01.2019;08:45;09:00;141
07.01.2019;09:00;09:15;145
07.01.2019;09:15;09:30;104
07.01.2019;09:30;09:45;85
07.01.2019;09:45;10:00;150
07.01.2019;10:00;10:15;158
07.01.2019;10:15;10:30;178
07.01.2019;10:30;10:45;220
07.01.2019;10:45;11:00;194
07.01.2019;11:00;11:15;184
07.01.2019;11:15;11:30;193
07.01.2019;11:30;11:45;197
07.01.2019;11:45;12:00;224
07.01.2019;12:00;12:15;235
07.01.2019;12:15;12:30;204
07.01.2019;12:30;12:45;195
07.01.2019;12:45;13:00;205
07.01.2019;13:00;13:15;209
07.01.2019;13:15;13:30;214
07.01.2019;13:30;13:45;192
07.01.2019;13:45;14:00;150
07.01.2019;14:00;14:15;166
07.01.2019;14:15;14:30;153
07.01.2019;14:30;14:45;169
07.01.2019;14:45;15:00;149
07.01.2019;15:00;15:15;144
07.01.2019;15:15;15:30;155
07.01.2019;15:30;15:45;158
07.01.2019;15:45;16:00;142
07.01.2019;16:00;16:15;136
07.01.2019;16:15;16:30;134
07.01.2019;16:30;16:45;135
07.01.2019;16:45;17:00;135
07.01.2019;17:00;17:15;135
07.01.2019;17:15;17:30;134
07.01.2019;17:30;17:45;135
07.01.2019;17:45;18:00;135
07.01.2019;18:00;18:15;135
07.01.2019;18:15;18:30;134
07.01.2019;18:30;18:45;135
07.01.2019;18:45;19:00;134
07.01.2019;19:00;19:15;133
07.01.2019;19:15;19:30;134
07.01.2019;19:30;19:45;134
07.01.2019;19:45;20:00;134
07.01.2019;20:00;20:15;134
07.01.2019;20:15;20:30;134
07.01.2019;20:30;20:45;134
07.01.2019;20:45;21:00;134
07.01.2019;21:00;21:15;134
07.01.2019;21:15;21:30;134
07.01.2019;21:30;21:45;133
07.01.2019;21:45;22:00;133
07.01.2019;22:00;22:15;134
07.01.2019;22:15;22:30;133
07.01.2019;22:30;22:45;132
07.01.2019;22:45;23:00;133
07.01.2019;23:00;23:15;133
07.01.2019;23:15;23:30;133
07.01.2019;23:30;23:45;136
08.01.2019;23:45;00:00;134
08.01.2019;00:00;00:15;134
08.01.2019;00:15;00:30;135
08.01.2019;00:30;00:45;53
08.01.2019;00:45;01:00;51
08.01.2019;01:00;01:15;52
08.01.2019;01:15;01:30;46
08.01.2019;01:30;01:45;46
08.01.2019;01:45;02:00;46
08.01.2019;02:00;02:15;46
08.01.2019;02:15;02:30;46
08.01.2019;02:30;02:45;46
08.01.2019;02:45;03:00;46
08.01.2019;03:00;03:15;46
08.01.2019;03:15;03:30;46
08.01.2019;03:30;03:45;46
08.01.2019;03:45;04:00;46
08.01.2019;04:00;04:15;46
08.01.2019;04:15;04:30;46
08.01.2019;04:30;04:45;46
08.01.2019;04:45;05:00;46
08.01.2019;05:00;05:15;46
08.01.2019;05:15;05:30;46
08.01.2019;05:30;05:45;46
08.01.2019;05:45;06:00;46
08.01.2019;06:00;06:15;46
08.01.2019;06:15;06:30;46
08.01.2019;06:30;06:45;46
08.01.2019;06:45;07:00;46
08.01.2019;07:00;07:15;46
08.01.2019;07:15;07:30;46
08.01.2019;07:30;07:45;46
08.01.2019;07:45;08:00;46
08.01.2019;08:00;08:15;47
08.01.2019;08:15;08:30;52
08.01.2019;08:30;08:45;58
08.01.2019;08:45;09:00;54
08.01.2019;09:00;09:15;57
08.01.2019;09:15;09:30;68
08.01.2019;09:30;09:45;67
08.01.2019;09:45;10:00;89
08.01.2019;10:00;10:15;88
08.01.2019;10:15;10:30;135
08.01.2019;10:30;10:45;120
08.01.2019;10:45;11:00;138
08.01.2019;11:00;11:15;172
08.01.2019;11:15;11:30;119
08.01.2019;11:30;11:45;132
08.01.2019;11:45;12:00;147
08.01.2019;12:00;12:15;144
08.01.2019;12:15;12:30;134
08.01.2019;12:30;12:45;74
08.01.2019;12:45;13:00;122
08.01.2019;13:00;13:15;134
08.01.2019;13:15;13:30;125
08.01.2019;13:30;13:45;132
08.01.2019;13:45;14:00;141
08.01.2019;14:00;14:15;138
08.01.2019;14:15;14:30;141
08.01.2019;14:30;14:45;132
08.01.2019;14:45;15:00;131
08.01.2019;15:00;15:15;117
08.01.2019;15:15;15:30;102
08.01.2019;15:30;15:45;98
08.01.2019;15:45;16:00;97
08.01.2019;16:00;16:15;99
08.01.2019;16:15;16:30;96
08.01.2019;16:30;16:45;97
08.01.2019;16:45;17:00;98
08.01.2019;17:00;17:15;97
08.01.2019;17:15;17:30;96
08.01.2019;17:30;17:45;96
08.01.2019;17:45;18:00;96
08.01.2019;18:00;18:15;96
08.01.2019;18:15;18:30;48
08.01.2019;18:30;18:45;46
08.01.2019;18:45;19:00;46
08.01.2019;19:00;19:15;46
08.01.2019;19:15;19:30;46
08.01.2019;19:30;19:45;46
08.01.2019;19:45;20:00;46
08.01.2019;20:00;20:15;46
08.01.2019;20:15;20:30;46
08.01.2019;20:30;20:45;46
08.01.2019;20:45;21:00;46
08.01.2019;21:00;21:15;46
08.01.2019;21:15;21:30;46
08.01.2019;21:30;21:45;46
08.01.2019;21:45;22:00;46
08.01.2019;22:00;22:15;46
08.01.2019;22:15;22:30;46
08.01.2019;22:30;22:45;46
08.01.2019;22:45;23:00;61
08.01.2019;23:00;23:15;92
08.01.2019;23:15;23:30;92
08.01.2019;23:30;23:45;90
09.01.2019;23:45;00:00;89
09.01.2019;00:00;00:15;90
09.01.2019;00:15;00:30;89
09.01.2019;00:30;00:45;88
09.01.2019;00:45;01:00;87
09.01.2019;01:00;01:15;89
09.01.2019;01:15;01:30;88
09.01.2019;01:30;01:45;86
09.01.2019;01:45;02:00;87
09.01.2019;02:00;02:15;86
09.01.2019;02:15;02:30;87
09.01.2019;02:30;02:45;84
09.01.2019;02:45;03:00;85
09.01.2019;03:00;03:15;85
09.01.2019;03:15;03:30;85
09.01.2019;03:30;03:45;84
09.01.2019;03:45;04:00;84
09.01.2019;04:00;04:15;85
09.01.2019;04:15;04:30;83
09.01.2019;04:30;04:45;84
09.01.2019;04:45;05:00;84
09.01.2019;05:00;05:15;84
09.01.2019;05:15;05:30;84
09.01.2019;05:30;05:45;84
09.01.2019;05:45;06:00;84
09.01.2019;06:00;06:15;84
09.01.2019;06:15;06:30;85
09.01.2019;06:30;06:45;84
09.01.2019;06:45;07:00;85
09.01.2019;07:00;07:15;86
09.01.2019;07:15;07:30;85
09.01.2019;07:30;07:45;85
09.01.2019;07:45;08:00;87
09.01.2019;08:00;08:15;86
09.01.2019;08:15;08:30;88
09.01.2019;08:30;08:45;91
09.01.2019;08:45;09:00;92
09.01.2019;09:00;09:15;93
09.01.2019;09:15;09:30;93
09.01.2019;09:30;09:45;95
09.01.2019;09:45;10:00;97
09.01.2019;10:00;10:15;97
09.01.2019;10:15;10:30;97
09.01.2019;10:30;10:45;97
09.01.2019;10:45;11:00;97
09.01.2019;11:00;11:15;97
09.01.2019;11:15;11:30;97
09.01.2019;11:30;11:45;97
09.01.2019;11:45;12:00;98
09.01.2019;12:00;12:15;98
09.01.2019;12:15;12:30;99
09.01.2019;12:30;12:45;98
09.01.2019;12:45;13:00;98
09.01.2019;13:00;13:15;98
09.01.2019;13:15;13:30;97
09.01.2019;13:30;13:45;98
09.01.2019;13:45;14:00;97
09.01.2019;14:00;14:15;98
09.01.2019;14:15;14:30;97
09.01.2019;14:30;14:45;97
09.01.2019;14:45;15:00;97
09.01.2019;15:00;15:15;96
09.01.2019;15:15;15:30;96
09.01.2019;15:30;15:45;97
09.01.2019;15:45;16:00;96
09.01.2019;16:00;16:15;98
09.01.2019;16:15;16:30;98
09.01.2019;16:30;16:45;97
09.01.2019;16:45;17:00;97
09.01.2019;17:00;17:15;96
09.01.2019;17:15;17:30;96
09.01.2019;17:30;17:45;98
09.01.2019;17:45;18:00;97
09.01.2019;18:00;18:15;97
09.01.2019;18:15;18:30;98
09.01.2019;18:30;18:45;98
09.01.2019;18:45;19:00;98
09.01.2019;19:00;19:15;98
09.01.2019;19:15;19:30;98
09.01.2019;19:30;19:45;98
09.01.2019;19:45;20:00;99
09.01.2019;20:00;20:15;99
09.01.2019;20:15;20:30;99
09.01.2019;20:30;20:45;100
09.01.2019;20:45;21:00;99
09.01.2019;21:00;21:15;99